loading
|
Showing default

MIDAS 6 (FTV 1169), 574

Orbit data source: Space-Track

MIDAS 6 (FTV 1169), 574 is a payload satellite owned by USAF SSD (US) that was launched on Thu, 09 May 1963 UTC via an ATLAS AGENA B launch vehicle from the Air Force Western Test Range (AFWTR). Payloads include a variety of satellites, spacecraft, and rockets equipped with specific instruments for various scientific and technological missions. These include communications satellites like Starlink; space stations such as the ISS; scientific satellites like the Hubble; Earth observation satellites from companies like Planet Labs, Umbra, and HawkEye 360; GPS; miniature CubeSats for education and research; and military/defense satellites.

Loading next visibility...
Loading greatness...
MIDAS 6 (FTV 1169) details
Identifier
574, 1963-014A
Orbit
Active
Last TLE update1 day ago
Origin
Flag of USUSAF SSD (US)
ManufacturerLMSC
Mission statusUnknown
MissionDefense Early Warn
Bus & MotorMIDAS, Unknown motor
Mass~1,540 kg wet, ~840 kg dry
Launch date (UTC)
1963-05-09 (61 years ago)
Launch vehicle
ATLAS AGENA B
Launch site
Air Force Western Test Range (AFWTR)
Object type
Payload
Rocket body
Debris
Radar Cross Section11 m², Large (>1 m²)

Expand to show TLE details & history

TLE from 1 day ago
0 MIDAS 6 (FTV 1169)
1 00574U 63014A   24250.40641511 -.00000015  00000-0 -82768-2 0  9996
2 00574  87.3059 257.4540 0032356  44.4831 315.8614  8.65274721161660
Epoch: 2024-09-06T09:45Z
Definitive object data (Epoch: 2024-09-06T09:45:14.265Z)
Latitude-0°
Longitude125.16516°
Altitude3,623.089 km
Speed6.321 km/s
True Right ascension17h 09m 48s
True Declination0° 00' 00"
Sunlit
Object was in daylight at TLE epoch
Predictive object data (real-time)
Latitude-16.67308°
Longitude-54.15891°
Altitude3,679.003 km
Speed6.287 km/s
Apparent Right ascension03h 12m 40s
Apparent Declination-36° 51' 11"
Sunlit
Object is in daylight
Predictive observer data (real-time)
Local Sidereal Time09:55:49
Azimuth245.156° WSW
Elevation-29.98°
Doppler factor1
Orbital elements
Apogee3,674.372 km
Perigee3,609.53 km
Semi-major axis10,020.088 km
Eccentricity0.0032356
Inclination87.3059°
RAAN257.454°
Arg. of periapsis44.4831°
True anomaly315.60244°
Mean anomaly315.8614°
Eccentric anomaly315.732°
Mean motion2.16389 °/min
BSTAR-0.0082768
Period166.37 mins
No data available

MIDAS 6 (FTV 1169) Visibility forecast

Observer location: 39.9160978°, -105.1181434

MIDAS 6 (FTV 1169) is not visible in the next 10 days
Span
Click to sort rows by Start time (UTC) header in descending order
Start Az.
Max El. time (UTC)
Max El. Az.
Max El.
End time (UTC)
End Az.